Time,TemperatureF,DewpointF,PressureIn,WindDirection,WindDirectionDegrees,WindSpeedMPH,WindSpeedGustMPH,Humidity,HourlyPrecipIn,Conditions,Clouds,dailyrainin,SoftwareType,DateUTC
2013-04-04 00:04:00,35.6,-99.9,30.25,East,90,4.0,9.0,-999,0.00,,,-99.99,WeatherLink 5.7,2013-04-04 04:04:00,
2013-04-04 00:33:00,35.1,-99.9,30.25,East,90,5.0,10.0,-999,0.00,,,-99.99,WeatherLink 5.7,2013-04-04 04:33:00,
2013-04-04 01:04:00,34.7,-99.9,30.24,East,90,5.0,10.0,-999,0.00,,,-99.99,WeatherLink 5.7,2013-04-04 05:04:00,
2013-04-04 01:33:00,34.3,-99.9,30.24,East,90,6.0,11.0,-999,0.00,,,-99.99,WeatherLink 5.7,2013-04-04 05:33:00,
2013-04-04 02:03:00,33.8,-99.9,30.24,East,90,5.0,10.0,-999,0.00,,,-99.99,WeatherLink 5.7,2013-04-04 06:03:00,
2013-04-04 02:30:00,33.5,-99.9,30.23,East,90,5.0,10.0,0,0.00,,,-99.99,WeatherLink 5.7,2013-04-04 06:30:00,
2013-04-04 03:03:00,33.1,-99.9,30.22,East,90,6.0,10.0,0,0.00,,,-99.99,WeatherLink 5.7,2013-04-04 07:03:00,
2013-04-04 03:33:00,32.9,-99.9,30.21,East,90,6.0,11.0,0,0.00,,,-99.99,WeatherLink 5.7,2013-04-04 07:33:00,
2013-04-04 04:04:00,32.7,-99.9,30.20,East,90,5.0,10.0,0,0.00,,,-99.99,WeatherLink 5.7,2013-04-04 08:04:00,
2013-04-04 04:33:00,32.5,-99.9,30.18,East,90,6.0,11.0,0,0.00,,,-99.99,WeatherLink 5.7,2013-04-04 08:33:00,
2013-04-04 05:04:00,32.3,-99.9,30.17,East,90,5.0,9.0,0,0.00,,,-99.99,WeatherLink 5.7,2013-04-04 09:04:00,
2013-04-04 05:33:00,31.8,-99.9,30.16,ENE,67,5.0,9.0,0,0.00,,,-99.99,WeatherLink 5.7,2013-04-04 09:33:00,
2013-04-04 06:03:00,31.5,-99.9,30.15,ENE,67,4.0,8.0,0,0.00,,,-99.99,WeatherLink 5.7,2013-04-04 10:03:00,
2013-04-04 06:34:00,31.2,-99.9,30.15,ENE,67,5.0,9.0,0,0.00,,,-99.99,WeatherLink 5.7,2013-04-04 10:34:00,
2013-04-04 07:04:00,31.1,-99.9,30.14,East,90,4.0,9.0,0,0.00,,,-99.99,WeatherLink 5.7,2013-04-04 11:04:00,
2013-04-04 07:33:00,30.9,-99.9,30.15,East,90,4.0,8.0,0,0.00,,,-99.99,WeatherLink 5.7,2013-04-04 11:33:00,
2013-04-04 08:03:00,30.9,-99.9,30.15,East,90,5.0,9.0,0,0.00,,,-99.99,WeatherLink 5.7,2013-04-04 12:03:00,
2013-04-04 08:33:00,31.1,-99.9,30.14,ENE,67,4.0,9.0,0,0.00,,,-99.99,WeatherLink 5.7,2013-04-04 12:33:00,
2013-04-04 09:04:00,31.9,-99.9,30.14,East,90,5.0,10.0,0,0.00,,,-99.99,WeatherLink 5.7,2013-04-04 13:04:00,
2013-04-04 09:33:00,33.2,-99.9,30.13,East,90,5.0,10.0,0,0.00,,,-99.99,WeatherLink 5.7,2013-04-04 13:33:00,
2013-04-04 10:04:00,34.8,-99.9,30.12,East,90,5.0,10.0,0,0.00,,,-99.99,WeatherLink 5.7,2013-04-04 14:04:00,
2013-04-04 10:34:00,37.0,-99.9,30.10,East,90,7.0,13.0,0,0.00,,,-99.99,WeatherLink 5.7,2013-04-04 14:34:00,
2013-04-04 11:03:00,39.5,-99.9,30.09,East,90,6.0,12.0,-999,0.00,,,-99.99,WeatherLink 5.7,2013-04-04 15:03:00,
2013-04-04 11:33:00,41.9,-99.9,30.07,ESE,112,7.0,13.0,-999,0.00,,,-99.99,WeatherLink 5.7,2013-04-04 15:33:00,
2013-04-04 12:04:00,43.5,-99.9,30.06,East,90,8.0,14.0,-999,0.00,,,-99.99,WeatherLink 5.7,2013-04-04 16:04:00,
2013-04-04 12:33:00,45.1,-99.9,30.05,ESE,112,7.0,15.0,-999,0.00,,,-99.99,WeatherLink 5.7,2013-04-04 16:33:00,
2013-04-04 13:03:00,45.2,-99.9,30.05,East,90,6.0,11.0,-999,0.00,,,-99.99,WeatherLink 5.7,2013-04-04 17:03:00,
2013-04-04 13:33:00,46.6,-99.9,30.02,East,90,5.0,12.0,-999,0.00,,,-99.99,WeatherLink 5.7,2013-04-04 17:33:00,
2013-04-04 14:04:00,47.8,-99.9,30.01,East,90,5.0,10.0,-999,0.00,,,-99.99,WeatherLink 5.7,2013-04-04 18:04:00,
2013-04-04 14:33:00,48.8,-99.9,29.99,ENE,67,3.0,7.0,-999,0.00,,,-99.99,WeatherLink 5.7,2013-04-04 18:33:00,
2013-04-04 15:04:00,49.4,-99.9,29.98,ESE,112,3.0,8.0,-999,0.00,,,-99.99,WeatherLink 5.7,2013-04-04 19:04:00,
2013-04-04 15:33:00,50.4,-99.9,29.96,South,180,2.0,7.0,-999,0.00,,,-99.99,WeatherLink 5.7,2013-04-04 19:33:00,
2013-04-04 16:04:00,51.5,-99.9,29.95,SE,135,3.0,8.0,-999,0.00,,,-99.99,WeatherLink 5.7,2013-04-04 20:04:00,
2013-04-04 16:33:00,52.7,-99.9,29.93,SSE,157,3.0,10.0,-999,0.00,,,-99.99,WeatherLink 5.7,2013-04-04 20:33:00,
2013-04-04 17:03:00,53.6,-99.9,29.93,SE,135,3.0,12.0,-999,0.00,,,-99.99,WeatherLink 5.7,2013-04-04 21:03:00,
2013-04-04 17:34:00,54.0,-99.9,29.92,SW,225,3.0,9.0,-999,0.00,,,-99.99,WeatherLink 5.7,2013-04-04 21:34:00,
2013-04-04 18:04:00,54.2,-99.9,29.92,SSW,202,4.0,10.0,-999,0.00,,,-99.99,WeatherLink 5.7,2013-04-04 22:04:00,
2013-04-04 18:34:00,54.2,-99.9,29.92,SSW,202,3.0,9.0,-999,0.00,,,-99.99,WeatherLink 5.7,2013-04-04 22:34:00,
2013-04-04 19:00:00,53.7,-99.9,29.92,SW,225,6.0,12.0,-999,0.00,,,-99.99,WeatherLink 5.7,2013-04-04 23:00:00,
2013-04-04 19:34:00,52.4,-99.9,29.92,WSW,247,4.0,8.0,-999,0.00,,,-99.99,WeatherLink 5.7,2013-04-04 23:34:00,
2013-04-04 20:00:00,51.1,-99.9,29.92,SW,225,4.0,7.0,-999,0.00,,,-99.99,WeatherLink 5.7,2013-04-05 00:00:00,
2013-04-04 20:34:00,49.8,-99.9,29.91,SW,225,2.0,5.0,-999,0.00,,,-99.99,WeatherLink 5.7,2013-04-05 00:34:00,
2013-04-04 21:03:00,48.3,-99.9,29.91,SW,225,3.0,4.0,-999,0.00,,,-99.99,WeatherLink 5.7,2013-04-05 01:03:00,
2013-04-04 21:33:00,46.7,-99.9,29.91,SW,225,2.0,4.0,-999,0.00,,,-99.99,WeatherLink 5.7,2013-04-05 01:33:00,
2013-04-04 22:03:00,45.1,-99.9,29.91,SW,225,2.0,4.0,-999,0.00,,,-99.99,WeatherLink 5.7,2013-04-05 02:03:00,
2013-04-04 22:34:00,43.7,-99.9,29.91,South,180,3.0,6.0,-999,0.00,,,-99.99,WeatherLink 5.7,2013-04-05 02:34:00,
2013-04-04 23:04:00,42.6,-99.9,29.90,South,180,3.0,7.0,-999,0.00,,,-99.99,WeatherLink 5.7,2013-04-05 03:04:00,
2013-04-04 23:33:00,42.0,-99.9,29.90,South,180,4.0,6.0,-999,0.00,,,-99.99,WeatherLink 5.7,2013-04-05 03:33:00,